If you wish to contribute or participate in the discussions about articles you are invited to join SKYbrary as a registered user

 Actions

Alice Springs Airport

From SKYbrary Wiki

YBAS
Airport
ICAO: YBAS – IATA: ASP
Summary
Name Alice Springs Airport
Region Asia and Pacific
Territory Australia AU.gif
Location , Northern Territory
Serving Alice Springs
Elevation 545.287 m <br />1,789 ft <br />1,789 ft545.287 m <br />
Type medium airport
Coordinates 23° 48' 24.01" S, 133° 54' 7.99" E
Runways
Designator Length Width Surface ROPS
12/30 2438 m7,998.688 ft <br /> 45 m147.638 ft <br /> ASP yes/yes
17/35 1133 m3,717.192 ft <br /> 18 m59.055 ft <br /> ASP yes/yes


METAR
Observation YBAS 151230Z AUTO 12005KT 9999 // NCD 18/M02 Q1016 RF00.0/000.0
Station Alice Springs Aerodrome
Date/Time 15 October 2021 12:30:00
Wind direction 120°
Wind speed 05 kts
Lowest cloud amount no clouds detected
Temperature 18°C
Dew point
Humidity 25%
QNH 1016 hPa
Weather condition n/a